#timestamp,LO_Frequency,Hit,StdDev 
1584957615.3,286047000.1,N
1584957635.1,286047002.2,N
1584957655.8,286047004.2,N
1584957675.7,286047003.8,N
1584957695.5,286047004.0,N
1584957715.4,286047000.1,N
1584957735.2,286047001.0,N
1584957755.0,286047000.0,N
1584957755.9,286047000.0,N
1584957775.8,286046998.5,N
1584957795.6,286047000.2,N
1584957815.4,286047002.2,N
1584957835.3,286046999.9,N
1584957855.1,286046999.8,N
1584957875.9,286046999.3,N
1584957895.7,286046999.0,N
1584957915.5,286046999.6,N
1584957935.4,286047001.1,N
1584957955.2,286046998.5,N
1584957975.1,286047001.2,N
1584957976.0,286047001.2,N
1584957995.8,286047002.8,N
1584958015.6,286047000.4,N
1584958035.5,286047000.9,N
1584958055.3,286046999.8,N
1584958075.2,286047000.6,N
1584958095.9,286047002.6,N
1584958115.7,286047003.5,N
1584958135.6,286047001.5,N
1584958155.4,286047004.3,N
1584958175.2,286047003.0,N
1584958195.1,286047002.9,N
1584958196.0,286047002.9,N
1584958215.8,286047001.4,N
1584958235.7,286047002.1,N
1584958255.5,286047001.5,N
1584958275.3,286047002.8,N
1584958295.2,286047000.4,N
1584958315.0,286047000.3,N
1584958315.9,286047000.3,N
1584958335.8,286047002.5,N
1584958355.6,286047002.3,N
1584958375.5,286047002.1,N
1584958395.3,286047002.2,N
1584958415.1,286047011.9,Y
1584958435.9,286046993.4,P
1584958455.7,286046993.9,N
1584958475.5,286046993.8,N
1584958495.4,286046995.0,N
1584958515.2,286046995.3,N
1584958535.1,286046996.3,N
1584958536.0,286046996.3,N
1584958555.8,286046995.7,N
1584958575.6,286046995.0,N
1584958595.5,286046997.0,N
1584958615.3,286046999.6,N
1584958635.2,286047000.3,N
1584958655.9,286047000.6,N
1584958675.7,286047001.6,N
1584958695.6,286047002.0,N
1584958715.4,286046999.9,N
1584958735.2,286047002.3,N
1584958755.1,286047003.6,N
1584958756.0,286047003.6,N
1584958775.8,286046999.9,N
1584958795.7,286046998.8,N
1584958815.5,286046997.3,N
1584958835.3,286046998.2,N
1584958855.2,286046999.3,N
1584958875.0,286046998.7,N
1584958875.9,286046998.7,N
1584958895.8,286047001.2,N
1584958915.6,286046999.1,N
1584958935.4,286047002.7,N
1584958955.3,286047000.7,N
1584958975.1,286047000.8,N
1584958995.8,286047002.3,N
1584959015.7,286047001.0,N
1584959035.5,286047002.6,N
1584959055.4,286047002.6,N
1584959075.2,286046999.7,N
1584959095.0,286047002.1,N
1584959095.9,286047002.1,N
1584959115.8,286047001.6,N
1584959135.6,286047003.0,N
1584959155.4,286047003.2,N
1584959175.3,286047001.7,N
1584959195.1,286047002.2,N
1584959215.9,286047003.7,N
1584959235.7,286047002.4,N
1584959255.5,286047002.7,N
1584959275.4,286046999.9,N
1584959295.2,286046999.3,N
1584959315.0,286047000.1,N
1584959315.9,286047000.1,N
1584959335.8,286047000.5,N
1584959355.6,286047000.9,N
1584959375.5,286047000.4,N
1584959395.3,286047001.2,N
1584959415.1,286047000.3,N
1584959435.9,286047000.6,N
1584959455.7,286047000.0,N
1584959475.6,286047001.2,N
1584959495.4,286047002.3,N
1584959515.2,286047000.1,N
1584959535.1,286047000.3,N
1584959536.0,286047000.3,N
1584959555.8,286047000.7,N
1584959575.7,286046999.2,N
1584959595.5,286046998.0,N
1584959615.3,286046998.8,N
1584959635.2,286046999.7,N
1584959655.0,286047002.0,N
1584959655.9,286047002.0,N
1584959675.8,286047001.3,N
1584959695.6,286047000.4,N
1584959715.4,286046998.2,N
1584959735.3,286047002.8,N
1584959755.1,286047001.8,N
1584959775.9,286047002.5,N
1584959795.7,286047003.0,N
1584959815.5,286047005.1,Y
1584959835.4,286047005.3,P
1584959855.2,286047004.0,N
1584959875.1,286047000.0,N
1584959876.0,286047000.0,N
1584959895.8,286046998.6,N
1584959915.6,286046999.0,N
1584959935.5,286046998.4,N
1584959955.3,286047000.5,N
1584959975.2,286047001.6,N
1584959995.9,286047002.2,N
1584960015.7,286047004.3,N
1584960035.6,286047004.0,N
1584960055.4,286047003.3,N
1584960075.3,286047004.1,N
1584960095.1,286047000.3,N
1584960096.0,286047000.3,N
1584960115.8,286047000.7,N
1584960135.7,286046998.2,N
1584960155.5,286046999.3,N
1584960175.4,286047000.1,N
1584960195.2,286047002.3,N
1584960215.0,286047003.8,N
1584960215.9,286047003.8,N
1584960235.8,286047005.9,N
1584960255.6,286047007.4,Y
1584960275.5,286047002.5,P
1584960295.3,286047000.1,N
1584960315.1,286046996.5,P
1584960335.9,286046998.3,N
1584960355.7,286046996.6,N
1584960375.5,286046999.6,N
1584960395.4,286046998.3,N
1584960415.2,286046998.3,N
1584960435.1,286046997.3,N
1584960436.0,286046997.3,N
1584960455.8,286046997.3,N
1584960475.6,286046995.4,N
1584960495.5,286046995.2,N
1584960515.3,286046996.8,N
1584960535.2,286046997.1,N
1584960555.9,286046997.7,N
1584960575.7,286046997.9,N
1584960595.6,286046996.8,N
1584960615.4,286046995.4,N
1584960635.2,286046995.4,N
1584960655.1,286046995.5,N
1584960656.0,286046995.5,N
1584960675.8,286046995.9,N
1584960695.7,286046995.8,N
1584960715.5,286046993.3,Y
1584960735.3,286047001.1,P
1584960755.2,286046999.3,N
1584960775.0,286046998.8,N
1584960775.9,286046998.8,N
1584960795.8,286047000.4,N
1584960815.6,286046999.1,N
1584960835.4,286046998.9,N
1584960855.3,286046999.3,N
1584960875.1,286046997.3,N
1584960895.9,286046996.7,Y
1584960915.7,286046999.1,P
1584960935.5,286046997.8,P
1584960955.4,286046997.4,P
1584960975.2,286046996.7,Y
1584960995.0,286046998.3,P
1584960996.0,286046998.3,P
1584961015.8,286046996.9,P
1584961035.6,286046996.5,Y
1584961055.5,286046998.2,P
1584961075.3,286047000.6,P
1584961095.1,286047001.0,N
1584961115.9,286046998.2,N
1584961135.7,286047001.0,N
1584961155.6,286047000.9,N
1584961175.4,286047000.5,N
1584961195.2,286047001.0,N
